TimeEDT,TemperatureF,Dew PointF,Humidity,Sea Level PressureIn,VisibilityMPH,Wind Direction,Wind SpeedMPH,Gust SpeedMPH,PrecipitationIn,Events,Conditions,WindDirDegrees,DateUTC
12:15 AM,72.5,67.6,85,29.87,10.0,South,8.1,-,N/A,,Mostly Cloudy,190,2013-08-07 04:15:00
12:35 AM,72.5,67.5,84,29.87,10.0,SSW,6.9,-,N/A,,Mostly Cloudy,200,2013-08-07 04:35:00
12:54 AM,72.0,67.5,86,29.86,10.0,SSW,5.8,-,N/A,,Scattered Clouds,200,2013-08-07 04:54:00
1:15 AM,71.4,67.5,87,29.86,10.0,SSW,4.6,-,N/A,,Clear,200,2013-08-07 05:15:00
1:35 AM,70.7,67.5,89,29.86,10.0,South,4.6,-,N/A,,Clear,180,2013-08-07 05:35:00
1:54 AM,70.7,67.5,89,29.86,10.0,South,3.5,-,N/A,,Scattered Clouds,190,2013-08-07 05:54:00
2:15 AM,71.1,68.0,90,29.86,10.0,SSW,6.9,-,N/A,,Scattered Clouds,200,2013-08-07 06:15:00
2:35 AM,71.6,68.0,88,29.85,10.0,SSW,6.9,-,N/A,,Overcast,200,2013-08-07 06:35:00
2:55 AM,71.6,68.0,88,29.85,10.0,SSW,5.8,-,N/A,,Mostly Cloudy,200,2013-08-07 06:55:00
3:15 AM,71.1,68.2,91,29.85,7.0,SSW,3.5,-,N/A,,Clear,200,2013-08-07 07:15:00
3:35 AM,70.7,68.2,92,29.85,7.0,South,4.6,-,N/A,,Clear,190,2013-08-07 07:35:00
3:55 AM,69.8,68.0,94,29.84,7.0,South,3.5,-,N/A,,Clear,180,2013-08-07 07:55:00
4:15 AM,69.6,68.0,95,29.84,7.0,South,3.5,-,N/A,,Clear,170,2013-08-07 08:15:00
4:35 AM,69.1,68.0,96,29.84,5.0,Calm,Calm,-,N/A,,Clear,0,2013-08-07 08:35:00
4:55 AM,68.9,67.6,96,29.83,5.0,Calm,Calm,-,N/A,,Clear,0,2013-08-07 08:55:00
5:15 AM,68.4,67.3,96,29.82,5.0,Calm,Calm,-,N/A,,Clear,0,2013-08-07 09:15:00
5:35 AM,68.0,67.1,97,29.82,4.0,Calm,Calm,-,N/A,,Scattered Clouds,0,2013-08-07 09:35:00
5:55 AM,68.2,67.3,97,29.82,5.0,South,3.5,-,N/A,,Scattered Clouds,180,2013-08-07 09:55:00
6:15 AM,68.4,67.5,97,29.81,5.0,South,3.5,-,N/A,,Scattered Clouds,170,2013-08-07 10:15:00
6:35 AM,68.2,67.3,97,29.80,5.0,South,4.6,-,N/A,,Clear,180,2013-08-07 10:35:00
6:55 AM,69.1,68.0,96,29.80,5.0,South,6.9,-,N/A,,Scattered Clouds,180,2013-08-07 10:55:00
7:15 AM,70.0,68.9,96,29.82,4.0,South,3.5,-,N/A,,Mostly Cloudy,190,2013-08-07 11:15:00
7:35 AM,70.7,69.3,95,29.85,4.0,North,10.4,16.1,N/A,,Overcast,360,2013-08-07 11:35:00
7:55 AM,65.8,64.4,95,29.83,2.0,NNE,13.8,19.6,N/A,Rain,Heavy Rain,30,2013-08-07 11:55:00
8:14 AM,65.3,64.4,97,29.88,1.5,NW,10.4,-,N/A,Rain,Heavy Rain,320,2013-08-07 12:14:00
8:35 AM,65.7,64.9,98,29.88,0.2,South,3.5,-,N/A,Rain,Heavy Rain,170,2013-08-07 12:35:00
8:55 AM,65.3,64.4,97,29.86,3.0,SE,5.8,-,N/A,Rain,Rain,130,2013-08-07 12:55:00
9:14 AM,65.1,64.2,97,29.86,1.5,SE,6.9,-,N/A,Rain,Heavy Rain,140,2013-08-07 13:14:00
9:35 AM,64.6,63.9,98,29.85,3.0,ESE,10.4,-,N/A,Rain,Light Rain,120,2013-08-07 13:35:00
9:55 AM,65.3,64.4,97,29.85,7.0,SE,9.2,-,N/A,Rain,Rain,140,2013-08-07 13:55:00
10:14 AM,65.8,64.9,97,29.85,10.0,SSE,5.8,-,N/A,Rain,Light Rain,160,2013-08-07 14:14:00
10:35 AM,66.0,64.8,96,29.87,10.0,NE,3.5,-,N/A,,Overcast,50,2013-08-07 14:35:00
10:55 AM,67.1,66.0,96,29.86,10.0,SE,4.6,-,N/A,,Overcast,130,2013-08-07 14:55:00
11:15 AM,68.0,66.4,95,29.86,10.0,ESE,5.8,-,N/A,,Overcast,120,2013-08-07 15:15:00
11:35 AM,68.5,67.1,95,29.85,10.0,SE,5.8,-,N/A,,Overcast,140,2013-08-07 15:35:00
11:55 AM,69.6,67.6,93,29.85,10.0,SSE,8.1,-,N/A,,Overcast,150,2013-08-07 15:55:00
12:15 PM,71.6,68.2,89,29.86,10.0,SSE,6.9,-,N/A,,Mostly Cloudy,150,2013-08-07 16:15:00
12:35 PM,72.7,69.3,89,29.87,10.0,South,5.8,-,N/A,,Mostly Cloudy,170,2013-08-07 16:35:00
12:55 PM,74.1,69.8,86,29.87,10.0,South,5.8,-,N/A,,Mostly Cloudy,170,2013-08-07 16:55:00
1:15 PM,75.7,70.2,83,29.86,10.0,South,4.6,-,N/A,,Overcast,170,2013-08-07 17:15:00
1:35 PM,78.3,70.7,77,29.85,10.0,South,6.9,-,N/A,,Mostly Cloudy,170,2013-08-07 17:35:00
1:55 PM,79.2,70.3,74,29.85,10.0,South,8.1,-,N/A,,Mostly Cloudy,180,2013-08-07 17:55:00
2:15 PM,78.6,70.5,76,29.85,10.0,South,4.6,-,N/A,,Mostly Cloudy,190,2013-08-07 18:15:00
2:35 PM,78.3,72.5,82,29.85,10.0,SSE,5.8,-,N/A,,Overcast,160,2013-08-07 18:35:00
2:55 PM,79.2,72.1,79,29.84,10.0,SSW,3.5,-,N/A,,Overcast,200,2013-08-07 18:55:00
3:15 PM,78.3,72.7,83,29.84,7.0,WSW,5.8,-,N/A,Rain,Light Rain,240,2013-08-07 19:15:00
3:35 PM,79.7,72.5,79,29.84,10.0,West,5.8,-,N/A,,Mostly Cloudy,270,2013-08-07 19:35:00
3:55 PM,79.7,72.1,78,29.84,10.0,Calm,Calm,-,N/A,,Scattered Clouds,0,2013-08-07 19:55:00
4:15 PM,81.9,71.4,70,29.84,10.0,WSW,6.9,-,N/A,,Scattered Clouds,250,2013-08-07 20:15:00
4:34 PM,80.2,70.9,73,29.85,10.0,WNW,5.8,-,N/A,,Mostly Cloudy,290,2013-08-07 20:34:00
4:55 PM,79.0,71.1,77,29.85,10.0,WNW,5.8,-,N/A,,Mostly Cloudy,290,2013-08-07 20:55:00
5:15 PM,78.8,71.2,78,29.85,10.0,West,5.8,-,N/A,,Scattered Clouds,270,2013-08-07 21:15:00
5:35 PM,79.2,70.3,74,29.85,10.0,West,4.6,-,N/A,,Clear,270,2013-08-07 21:35:00
5:55 PM,78.8,69.8,74,29.85,10.0,WNW,6.9,-,N/A,,Clear,300,2013-08-07 21:55:00
6:14 PM,77.2,69.6,77,29.86,10.0,NW,6.9,-,N/A,,Clear,310,2013-08-07 22:14:00
6:35 PM,76.3,70.3,82,29.86,10.0,NW,8.1,-,N/A,,Scattered Clouds,320,2013-08-07 22:35:00
6:55 PM,75.0,70.0,84,29.86,10.0,North,9.2,-,N/A,,Scattered Clouds,350,2013-08-07 22:55:00
7:14 PM,73.8,69.4,86,29.87,10.0,North,8.1,-,N/A,,Scattered Clouds,350,2013-08-07 23:14:00
7:35 PM,72.5,68.2,86,29.88,10.0,North,9.2,-,N/A,,Clear,360,2013-08-07 23:35:00
7:55 PM,70.9,67.5,89,29.89,10.0,North,6.9,-,N/A,,Clear,350,2013-08-07 23:55:00
8:15 PM,69.3,66.2,90,29.89,10.0,North,4.6,-,N/A,,Clear,360,2013-08-08 00:15:00
8:35 PM,68.9,65.7,89,29.89,10.0,North,5.8,-,N/A,,Scattered Clouds,10,2013-08-08 00:35:00
8:54 PM,68.0,64.6,89,29.89,10.0,North,3.5,-,N/A,,Clear,10,2013-08-08 00:54:00
9:15 PM,67.6,63.0,85,29.90,10.0,North,3.5,-,N/A,,Clear,360,2013-08-08 01:15:00
9:35 PM,67.3,62.6,85,29.91,10.0,Calm,Calm,-,N/A,,Clear,0,2013-08-08 01:35:00
9:54 PM,67.1,63.3,88,29.92,10.0,North,5.8,-,N/A,,Clear,350,2013-08-08 01:54:00
10:15 PM,66.7,63.7,90,29.94,10.0,North,3.5,-,N/A,,Clear,350,2013-08-08 02:15:00
10:35 PM,66.7,64.0,91,29.94,10.0,NNW,4.6,-,N/A,,Clear,340,2013-08-08 02:35:00
10:54 PM,66.7,64.4,92,29.95,10.0,NNW,5.8,-,N/A,,Clear,340,2013-08-08 02:54:00
11:15 PM,66.7,64.6,93,29.94,10.0,North,4.6,-,N/A,,Clear,350,2013-08-08 03:15:00
11:35 PM,66.4,64.2,93,29.95,10.0,Calm,Calm,-,N/A,,Clear,0,2013-08-08 03:35:00
11:55 PM,65.8,63.9,93,29.95,10.0,Calm,Calm,-,N/A,,Clear,0,2013-08-08 03:55:00